EW9140 Weather Reports


time (UTC)temp
C
wind
direction
speed
KPH
gust
KPH
rain 1hr
cm
rain 24hr
cm
rain mn
cm
humidity
%
barometer
mb
20260510161538 28 25 0.0 4.8 0.00 0.00 0.00 36 1013.0
20260510160034 28 233 0.0 1.6 0.00 0.00 0.00 37 1013.3
20260510154533 27 235 0.0 1.6 0.00 0.00 0.00 40 1013.2
20260510153028 27 272 0.0 1.6 0.00 0.00 0.00 40 1013.3
20260510151525 26 138 0.0 1.6 0.00 0.00 0.00 42 1013.5
20260510150034 26 272 0.0 1.6 0.00 0.00 0.00 43 1013.6
20260510144520 26 125 0.0 1.6 0.00 0.00 0.00 45 1013.4
20260510143029 25 240 0.0 3.2 0.00 0.00 0.00 46 1013.3
20260510141512 23 262 0.0 0.0 0.00 0.00 0.00 54 1013.2
20260510140007 22 266 0.0 3.2 0.00 0.00 0.00 58 1013.2
20260510134503 21 192 0.0 0.0 0.00 0.00 0.00 65 1013.1
20260510133059 20 191 0.0 1.6 0.00 0.00 0.00 67 1013.1
20260510131557 18 289 0.0 3.2 0.00 0.00 0.00 74 1013.4
20260510130050 17 184 0.0 0.0 0.00 0.00 0.00 81 1013.2
20260510124558 16 195 0.0 1.6 0.00 0.00 0.00 89 1013.1
20260510123049 15 131 0.0 1.6 0.00 0.00 0.00 96 1013.0
20260510121545 14 290 0.0 0.0 0.00 0.00 0.00 96 1012.7
20260510120045 13 290 0.0 0.0 0.00 0.00 0.00 96 1012.7
20260510114546 12 290 0.0 0.0 0.00 0.00 0.00 96 1012.5
20260510113041 12 290 0.0 0.0 0.00 0.00 0.00 95 1012.2
20260510111538 11 290 0.0 0.0 0.00 0.00 0.00 95 1012.0
20260510110038 11 290 0.0 0.0 0.00 0.00 0.00 94 1011.9
20260510104536 11 290 0.0 0.0 0.00 0.00 0.00 94 1011.6
20260510103034 12 290 0.0 0.0 0.00 0.00 0.00 94 1011.4
20260510101531 12 290 0.0 0.0 0.00 0.00 0.00 94 1011.3
20260510100041 12 290 0.0 0.0 0.00 0.00 0.00 94 1010.9
20260510094540 12 290 0.0 0.0 0.00 0.00 0.00 93 1010.7
20260510093024 12 290 0.0 0.0 0.00 0.00 0.00 93 1010.6
20260510091524 13 290 0.0 0.0 0.00 0.00 0.00 93 1010.6
20260510090024 13 290 0.0 0.0 0.00 0.00 0.00 93 1010.5
20260510084518 13 290 0.0 0.0 0.00 0.00 0.00 92 1010.4
20260510083021 13 290 0.0 0.0 0.00 0.00 0.00 92 1010.3
20260510081513 14 290 0.0 0.0 0.00 0.00 0.00 92 1010.4
20260510080025 14 290 0.0 0.0 0.00 0.00 0.00 91 1010.3
20260510074511 15 290 0.0 0.0 0.00 0.00 0.00 91 1010.2
20260510073008 15 290 0.0 0.0 0.00 0.00 0.00 90 1009.9
20260510071503 15 290 0.0 0.0 0.00 0.00 0.00 89 1009.9
20260510070001 16 290 0.0 0.0 0.00 0.00 0.00 88 1009.9
20260510064558 16 290 0.0 0.0 0.00 0.00 0.00 87 1010.0
20260510063056 17 290 0.0 0.0 0.00 0.00 0.00 86 1010.0
20260510061556 17 290 0.0 0.0 0.00 0.00 0.00 85 1010.0
20260510060054 17 286 0.0 1.6 0.00 0.00 0.00 85 1010.1
20260510054554 17 298 0.0 3.2 0.00 0.00 0.00 85 1010.1
20260510053051 17 242 0.0 1.6 0.00 0.00 0.00 85 1010.3
20260510051551 17 302 0.0 0.0 0.00 0.00 0.00 84 1010.2
20260510050056 17 283 0.0 0.0 0.00 0.00 0.00 84 1010.2
20260510044556 17 278 0.0 0.0 0.00 0.00 0.00 84 1010.2
20260510043103 17 278 0.0 0.0 0.00 0.00 0.00 83 1010.2
20260510041546 17 278 0.0 1.6 0.00 0.00 0.00 82 1010.1
20260510040055 17 165 0.0 0.0 0.00 0.00 0.00 82 1010.0
20260510034547 17 166 0.0 0.0 0.00 0.00 0.00 81 1009.9
20260510033058 17 166 0.0 0.0 0.00 0.00 0.00 81 1009.9
20260510031547 17 165 0.0 0.0 0.00 0.00 0.00 80 1009.8
20260510030046 17 166 0.0 0.0 0.00 0.00 0.00 80 1009.7
20260510024543 17 166 0.0 0.0 0.00 0.00 0.00 80 1009.7
20260510023043 17 166 0.0 0.0 0.00 0.00 0.00 79 1009.7
20260510021542 17 166 0.0 0.0 0.00 0.00 0.00 78 1009.3
20260510020046 17 166 0.0 0.0 0.00 0.00 0.00 77 1009.1
20260510014546 17 166 0.0 0.0 0.00 0.00 0.00 76 1009.0
20260510013040 18 166 0.0 0.0 0.00 0.00 0.00 75 1008.9
20260510011543 18 166 0.0 0.0 0.00 0.00 0.00 74 1008.9
20260510010039 18 166 0.0 0.0 0.00 0.00 0.00 73 1008.6
20260510004539 18 166 0.0 0.0 0.00 0.00 0.00 72 1008.5
20260510003039 19 166 0.0 0.0 0.00 0.00 0.00 71 1008.2
20260510001542 20 166 0.0 0.0 0.00 0.00 0.00 68 1008.1
20260510000057 21 166 0.0 0.0 0.00 0.00 0.00 65 1007.9
20260509234549 21 166 0.0 0.0 0.00 0.00 0.00 61 1007.8
20260509233036 22 166 0.0 0.0 0.00 0.00 0.00 58 1007.7
20260509231534 22 166 0.0 0.0 0.00 0.00 0.00 55 1007.7
20260509230037 23 166 0.0 0.0 0.00 0.00 0.00 52 1007.6
20260509224534 24 166 0.0 0.0 0.00 0.00 0.00 51 1007.5
20260509223033 23 166 0.0 1.6 0.00 0.00 0.00 51 1007.7
20260509221532 24 4 0.0 0.0 0.00 0.00 0.00 50 1007.6
20260509220035 25 274 0.0 1.6 0.00 0.00 0.00 47 1007.6
20260509214534 25 159 0.0 4.8 0.00 0.00 0.00 48 1007.5
20260509213033 24 91 0.0 4.8 0.00 0.00 0.00 48 1007.3
20260509211532 25 292 0.0 4.8 0.00 0.00 0.00 44 1007.3
20260509210038 25 26 0.0 4.8 0.00 0.00 0.00 46 1007.2
20260509204534 25 302 0.0 8.0 0.00 0.00 0.00 46 1007.3
20260509203026 24 302 0.0 4.8 0.00 0.00 0.00 52 1007.1
20260509201526 23 290 0.0 4.8 0.00 0.00 0.00 54 1007.5
20260509200022 23 271 0.0 4.8 0.00 0.00 0.00 53 1007.6
20260509194525 23 120 0.0 3.2 0.00 0.00 0.00 53 1007.7
20260509193025 23 130 0.0 1.6 0.00 0.00 0.00 53 1008.1
20260509191524 23 108 0.0 6.4 0.00 0.00 0.00 52 1008.1
20260509190017 23 343 0.0 3.2 0.00 0.00 0.00 51 1008.3
20260509184522 23 8 0.0 6.4 0.00 0.00 0.00 48 1008.5
20260509183015 24 150 0.0 8.0 0.00 0.00 0.00 45 1008.6
20260509181513 25 138 0.0 4.8 0.00 0.00 0.00 46 1008.6
20260509180014 24 278 0.0 6.4 0.00 0.00 0.00 48 1008.8
20260509174511 23 278 0.0 9.7 0.00 0.00 0.00 48 1009.0
20260509173010 24 285 0.0 3.2 0.00 0.00 0.00 48 1008.9
20260509171508 24 296 0.0 6.4 0.00 0.00 0.00 48 1008.9
20260509170006 24 155 0.0 8.0 0.00 0.00 0.00 48 1009.1
20260509164503 23 316 0.0 4.8 0.00 0.00 0.00 49 1009.8
20260509163100 23 292 0.0 8.0 0.00 0.00 0.00 50 1010.0